Terminal Aerodrome Forecast
Issued by NWS Memphis, TN

Home | Current Version | Previous Version | Text Only | Print | Product List | Glossary On
Versions: 1 2 3 4 5 6 7 8 9 10 11 12 13 14 15 16 17 18 19 20 21 22 23 24 25 26 27 28
000
FTUS44 KMEG 280858 AAA
TAFMEM
TAF AMD
KMEM 280858Z 2809/2906 12005KT P6SM SCT080
     FM281400 09007KT P6SM VCSH BKN025 OVC050
      TEMPO 2815/2819 6SM -RA BR BKN018
     FM282200 11007KT P6SM BKN050
     FM290200 12003KT P6SM SCT050=

USA.gov is the U.S. government's official web portal to all federal, state and local government web resources and services.